This demonstration page uses our WeatherBlox Daily Observations layout. Learn more.

Left ArrowRight Arrow

40.92945, -100.16068

Hourly Observations for June 17, 2020

Temp ( °F °C ) Dew Point ( °F °C ) Humidity (%) Winds ( mph kmh ) Pressure ( in mb ) Visibility ( mi km ) Precip ( " mm )
12:15 am 00:15 Clear 75 24 56 13.4 52 52 SSE 17 28 29.78 1008 10 16.0934 0 0
12:35 am 00:35 Clear 75 24 56 13.6 52 52 SSE 16 26 29.78 1008 10 16.0934 0 0
12:55 am 00:55 Clear 74 23.6 57 13.9 55 55 SSE 18 30 29.78 1009 10 16.0934 0 0
1:15 am 01:15 Clear 74 23.6 57 14.1 55 55 SSE 17 28 29.77 1008 10 16.0934 0 0
1:35 am 01:35 Clear 74 23.2 57 14.1 57 57 SSE 18 30 29.78 1008 10 16.0934 0 0
1:55 am 01:55 Clear 73 23 57 14.1 57 57 SSE 18 30 29.78 1008 10 16.0934 0 0
2:15 am 02:15 Clear 73 22.6 57 14.1 59 59 SSE 18 30 29.77 1008 10 16.0934 0 0
2:35 am 02:35 Clear 73 22.5 58 14.2 60 60 SSE 18 30 29.77 1008 10 16.0934 0 0
2:55 am 02:55 Clear 72 22.4 58 14.2 60 60 SSE 18 30 29.77 1008 10 16.0934 0 0
3:15 am 03:15 Clear 72 22.4 57 14.1 60 60 SSE 18 30 29.76 1008 10 16.0934 0 0
3:35 am 03:35 Clear 72 22.3 57 14.1 60 60 SSE 17 28 29.76 1008 10 16.0934 0 0
3:55 am 03:55 Clear 72 22.1 58 14.5 62 62 SSE 21 33 29.76 1008 10 16.0934 0 0
4:15 am 04:15 Clear 72 22 59 14.8 64 64 SSE 17 28 29.76 1008 10 16.0934 0 0
4:35 am 04:35 Clear 71 21.8 59 15.1 66 66 SSE 17 28 29.76 1008 10 16.0934 0 0
4:55 am 04:55 Clear 71 21.7 60 15.4 68 68 SSE 18 30 29.75 1007 10 16.0934 0 0
5:15 am 05:15 Clear 71 21.7 60 15.5 68 68 SSE 22 35 29.75 1007 10 16.0934 0 0
5:35 am 05:35 Clear 71 21.8 60 15.5 68 68 SSE 18 30 29.75 1007 10 16.0934 0 0
5:55 am 05:55 Clear 71 21.7 60 15.5 68 68 SSE 20 31 29.75 1007 10 16.0934 0 0
6:15 am 06:15 Sunny 72 22 60 15.4 66 66 SSE 21 33 29.75 1007 10 16.0934 0 0
6:35 am 06:35 Sunny 72 22 60 15.5 67 67 SSE 21 33 29.75 1007 10 16.0934 0 0
6:55 am 06:55 Sunny 72 22.1 60 15.6 67 67 S 22 35 29.74 1007 10 16.0934 0 0
7:15 am 07:15 Sunny 72 22.4 60 15.8 66 66 SSE 17 28 29.73 1007 10 16.0934 0 0
7:35 am 07:35 Sunny 73 22.6 61 16 66 66 SSE 21 33 29.73 1007 10 16.0934 0 0
7:55 am 07:55 Sunny 73 23 61 16.2 66 66 SSE 23 37 29.73 1007 10 16.0934 0 0
8:15 am 08:15 Sunny 74 23.6 62 16.5 65 65 SSE 24 39 29.72 1007 10 16.0934 0 0
8:35 am 08:35 Sunny 75 24.1 62 16.7 63 63 S 20 31 29.73 1007 10 16.0934 0 0
8:55 am 08:55 Sunny 76 24.6 62 16.8 62 62 S 21 33 29.72 1007 10 16.0934 0 0
9:15 am 09:15 Sunny 78 25.3 63 17 60 60 S 24 39 29.72 1006 10 16.0934 0 0
9:35 am 09:35 Sunny 79 26.1 63 17.1 58 58 S 22 35 29.71 1006 10 16.0934 0 0
9:55 am 09:55 Sunny 80 26.7 63 17.1 56 56 SSE 22 35 29.71 1006 10 16.0934 0 0
10:15 am 10:15 Sunny 82 27.5 63 17 53 53 S 23 37 29.69 1005 10 16.0934 0 0
10:35 am 10:35 Sunny 83 28.1 63 17.2 52 52 S 24 39 29.69 1005 10 16.0934 0 0
10:55 am 10:55 Sunny 83 28.5 62 16.8 49 49 S 23 37 29.67 1005 10 16.0934 0 0
11:15 am 11:15 Sunny 84 29.1 63 17.3 49 49 SSE 22 35 29.67 1005 10 16.0934 0 0
11:35 am 11:35 Sunny 86 29.8 63 17.3 47 47 SSE 26 43 29.66 1004 10 16.0934 0 0
11:55 am 11:55 Sunny 87 30.3 63 17.3 46 46 S 22 35 29.65 1004 10 16.0934 0 0
12:15 pm 12:15 Sunny 88 30.9 64 17.5 45 45 S 24 39 29.64 1004 10 16.0934 0 0
12:35 pm 12:35 Sunny 88 31 63 17.3 44 44 S 26 43 29.63 1003 10 16.0934 0 0
12:55 pm 12:55 Sunny 89 31.5 63 17.2 42 42 S 25 41 29.63 1003 10 16.0934 0 0
1:15 pm 13:15 Sunny 90 32.1 63 17.2 41 41 S 29 46 29.61 1003 10 16.0934 0 0
1:35 pm 13:35 Sunny 91 32.8 63 17.2 39 39 S 25 41 29.6 1002 10 16.0934 0 0
1:55 pm 13:55 Sunny 92 33.1 63 17.1 38 38 S 26 43 29.6 1002 10 16.0934 0 0
2:15 pm 14:15 Sunny 92 33.5 63 17 37 37 S 31 50 29.58 1002 10 16.0934 0 0
2:35 pm 14:35 Sunny 92 33.6 62 16.8 37 37 S 31 50 29.58 1002 10 16.0934 0 0
2:55 pm 14:55 Sunny 93 34 62 16.8 36 36 S 31 50 29.57 1001 10 16.0934 0 0
3:15 pm 15:15 Sunny 94 34.4 62 16.6 35 35 S 33 54 29.57 1001 10 16.0934 0 0
3:35 pm 15:35 Sunny 95 35 62 16.6 33 33 S 26 43 29.56 1001 10 16.0934 0 0
3:55 pm 15:55 Sunny 94 34.7 61 16 33 33 S 29 46 29.55 1001 10 16.0934 0 0
4:15 pm 16:15 Sunny 95 35.1 61 16.2 32 32 S 31 50 29.55 1001 10 16.0934 0 0
4:35 pm 16:35 Sunny 95 34.9 61 16.1 32 32 S 25 41 29.55 1001 10 16.0934 0 0
4:55 pm 16:55 Sunny 95 34.9 61 16 32 32 S 29 46 29.55 1001 10 16.0934 0 0
5:15 pm 17:15 Sunny 94 34.5 60 15.6 32 32 S 31 50 29.56 1001 10 16.0934 0 0
5:35 pm 17:35 Sunny 94 34.5 60 15.5 32 32 S 30 48 29.56 1001 10 16.0934 0 0
5:55 pm 17:55 Sunny 94 34.2 60 15.5 33 33 S 23 37 29.55 1001 10 16.0934 0 0
6:15 pm 18:15 Sunny 93 34 60 15.5 33 33 S 26 43 29.55 1001 10 16.0934 0 0
6:35 pm 18:35 Sunny 93 33.8 60 15.6 33 33 S 25 41 29.56 1001 10 16.0934 0 0
6:55 pm 18:55 Sunny 92 33.1 60 15.3 34 34 S 22 35 29.57 1001 10 16.0934 0 0
7:15 pm 19:15 Sunny 91 32.9 60 15.3 35 35 S 22 35 29.57 1001 10 16.0934 0 0
7:35 pm 19:35 Sunny 90 32.1 60 15.7 37 37 S 18 30 29.56 1001 10 16.0934 0 0
7:55 pm 19:55 Sunny 89 31.4 61 16.1 40 40 SSE 17 28 29.57 1001 10 16.0934 0 0
8:15 pm 20:15 Sunny 88 30.9 61 16.2 41 41 SSE 18 30 29.57 1001 10 16.0934 0 0
8:35 pm 20:35 Sunny 86 30.1 61 16.1 43 43 SSE 16 26 29.58 1002 10 16.0934 0 0
8:55 pm 20:55 Sunny 85 29.5 60 15.8 43 43 SSE 18 30 29.57 1002 10 16.0934 0 0
9:15 pm 21:15 Clear 84 29 60 15.7 44 44 SSE 16 26 29.58 1002 10 16.0934 0 0
9:35 pm 21:35 Clear 83 28.4 61 16 47 47 SE 17 28 29.57 1001 10 16.0934 0 0
9:55 pm 21:55 Clear 83 28.2 60 15.8 47 47 SSE 20 31 29.59 1002 10 16.0934 0 0
10:15 pm 22:15 Clear 82 28 60 15.5 47 47 SSE 20 31 29.59 1002 10 16.0934 0 0
10:35 pm 22:35 Clear 81 27.2 60 15.3 48 48 SSE 20 31 29.6 1002 10 16.0934 0 0
10:55 pm 22:55 Clear 80 26.8 59 15.1 49 49 SSE 17 28 29.62 1003 10 16.0934 0 0
11:15 pm 23:15 Clear 80 26.6 59 14.8 48 48 SE 16 26 29.63 1003 10 16.0934 0 0
11:35 pm 23:35 Clear 80 26.4 58 14.2 47 47 SSE 17 28 29.63 1003 10 16.0934 0 0
11:55 pm 23:55 Clear 79 26 57 13.9 47 47 SSE 16 26 29.64 1004 10 16.0934 0 0

Powered by AerisWeather